Regional Weather Roundup
Issued by NWS Northern Indiana

Home | Current Version | Previous Version | Text Only | Print | Product List | Glossary On
Versions: 1 2 3 4 5 6 7 8 9 10 11 12 13 14 15 16 17 18 19 20 21 22 23 24 25 26 27 28 29 30 31 32 33 34 35 36 37 38 39 40 41 42 43 44 45 46 47 48 49 50
000
ASUS43 KIWX 302310
RWRIWX

KIWX WEATHER ROUNDUP
NATIONAL WEATHER SERVICE NORTHERN INDIANA
700 PM EDT THU OCT 30 2014

NOTE: "FAIR" INDICATES FEW OR NO CLOUDS BELOW 12,000 FEET WITH NO
SIGNIFICANT WEATHER AND/OR OBSTRUCTIONS TO VISIBILITY.

* THESE STATIONS ARE NOT UNDER NWS QUALITY CONTROL. THEY ALSO MAY NOT
  REPORT WEATHER SUCH AS PRECIPITATION OR FOG.

INZ001>027-310000-
NORTHERN INDIANA

CITY           SKY/WX    TMP DP  RH WIND       PRES   REMARKS
GARY*          CLOUDY    50  34  53 W9        30.07S
VALPARAISO     CLOUDY    47  35  63 W6        30.07S
MICHIGAN CITY* CLOUDY    46  32  57 W3        30.07S
LAPORTE*       CLOUDY    49  37  64 SW3       30.07S
KNOX*          CLOUDY    48  34  57 W3        30.07R
SOUTH BEND     CLOUDY    50  33  52 SW6       30.07F
ELKHART*       CLOUDY    48  32  53 W3        30.07S
GOSHEN         CLOUDY    48  35  60 SW5       30.06S
MONTICELLO*    CLOUDY    48  37  65 CALM      30.06S
LOGANSPORT*    CLOUDY    48  34  57 CALM      30.07S
ROCHESTER*     CLOUDY    50  36  57 NW3       30.07S
WARSAW*        CLOUDY    46  34  61 W3        30.07R
ANGOLA*        CLOUDY    46  36  66 CALM      30.06S
FORT WAYNE     CLOUDY    48  36  63 CALM      30.08S
HUNTINGTON*    CLOUDY   N/A N/A N/A CALM      30.07S
PERU/GRISSOM   CLOUDY    49  39  69 SW2       30.06S
MARION*        CLOUDY    49  33  53 CALM      30.07F

$$
INZ028>050-310000-
CENTRAL INDIANA

CITY           SKY/WX    TMP DP  RH WIND       PRES   REMARKS
LAFAYETTE      CLOUDY    49  36  61 NW5       30.07R
KOKOMO*        CLOUDY    50  34  53 CALM      30.07S
MUNCIE*        CLOUDY    46  37  71 E3        30.07S
INDIANAPOLIS   CLOUDY    52  32  46 CALM      30.05F

$$
MIZ043>046-050>051-056>058-064>065-071>073-077>080-310000-
SOUTHWEST LOWER MICHIGAN

CITY           SKY/WX    TMP DP  RH WIND       PRES   REMARKS
BATTLE CREEK   CLOUDY    47  36  65 S5        30.06S
BENTON HARBOR  CLOUDY    47  36  65 W7        30.06S
COLDWATER*     CLOUDY    48  37  65 SW3       30.06S
HILLSDALE*     CLOUDY    47  36  66 CALM      30.06S
HOLLAND        CLOUDY    49  37  63 W9        30.06S
GRAND RAPIDS   CLOUDY    48  38  68 W8        30.05S
KALAMAZOO      CLOUDY    48  35  60 W9        30.06S
STURGIS*       CLOUDY    46  37  71 S3        30.06S
THREE RIVERS*  CLOUDY    50  37  59 CALM      30.06S

$$
OHZ001>008-015>018-024>025-310000-
NORTHWEST OHIO

CITY           SKY/WX    TMP DP  RH WIND       PRES   REMARKS
WAUSEON*       CLOUDY    46  37  71 SW5       30.08R
DEFIANCE       CLOUDY    47  36  65 S3        30.08S
FINDLAY        CLOUDY    48  34  58 W6        30.07S
TOLEDO EXPRESS CLOUDY    48  35  60 W5        30.07S
TOLEDO METCALF CLOUDY    49  35  58 SW3       30.09S
LIMA           CLOUDY    47  36  65 W5        30.08S

$$
AND FOR LAKE MICHIGAN COASTAL AND OPEN LAKE BUOY OBSERVATIONS

STATION/POSITION TEMP    WIND        PRES    VSBY  WAVE
                 AIR SEA DIR/SP/G                  HT/PER
                 (F)     (DEG/KT/KT) (MB)    (MI)  (FT/S)
CALUMET HARBOR    49     230/  4/  8 1016.8S
MICHIGAN CITY     50     200/  9/ 11   N/A
SAINT JOSEPH      51     220/  9/ 11 1017.9F
SOUTH LAKE BUOY   50 53  230/  8/ 10 1017.9F         1/ 3

$$
&&



USA.gov is the U.S. government's official web portal to all federal, state and local government web resources and services.